This is the latest recevied weather packets stored in our database for station/object SQ7IQO. If no packets are shown the sender has not sent any weather packets the latest 10 day(s).
| Time | Temp. | Humidity | Pressure | Rain* | Wind** | Luminosity | Snow |
|---|---|---|---|---|---|---|---|
| 1787981021 | 17.22° C | 98% | - | 88.9 mm | 0.89 m/s, ° | - | - |
| 1787980961 | 17.22° C | 98% | 1012.5 hPa | 88.9 mm | 0.45 m/s, ° | - | - |
| 1787980901 | 17.22° C | 98% | 1012.5 hPa | 88.9 mm | 0.89 m/s, ° | - | - |
| 1787980841 | 17.22° C | 97% | 1012.6 hPa | 88.9 mm | 0.89 m/s, ° | - | - |
| 1787980781 | 17.22° C | 97% | 1012.6 hPa | 88.9 mm | 0.89 m/s, ° | - | - |
| 1787980721 | 17.22° C | 97% | 1014.4 hPa | 88.9 mm | 0.89 m/s, ° | - | - |
| 1787980661 | 17.22° C | 97% | 1012.6 hPa | 88.9 mm | 0.89 m/s, ° | - | - |
| 1787980601 | 17.22° C | 97% | 1012.6 hPa | 88.9 mm | 0.89 m/s, ° | - | - |
| 1787980541 | 17.22° C | 97% | 1012.6 hPa | 88.9 mm | 0.89 m/s, ° | - | - |
| 1787980481 | 17.22° C | 97% | 1012.7 hPa | 88.9 mm | 0.45 m/s, ° | - | - |
| 1787980421 | 17.22° C | 97% | 1012.6 hPa | 69.85 mm | 0.45 m/s, ° | - | - |
| 1787980361 | 17.22° C | 97% | 1240.5 hPa | 69.85 mm | 0.89 m/s, ° | - | - |
| 1787980301 | 17.22° C | 97% | 1012.7 hPa | 69.85 mm | 2.24 m/s, ° | - | - |
| 1787980241 | 17.22° C | 97% | 1012.6 hPa | 69.85 mm | 2.24 m/s, ° | - | - |
| 1787980181 | 17.22° C | 97% | 1012.6 hPa | 69.85 mm | 0.45 m/s, ° | - | - |
| 1787980121 | 17.22° C | 97% | 1012.5 hPa | 69.85 mm | 0.45 m/s, ° | - | - |
| 1787980061 | 17.22° C | 97% | 1012.5 hPa | 69.85 mm | 0.89 m/s, ° | - | - |
| 1787980001 | 17.22° C | 97% | 1012.5 hPa | 69.85 mm | 1.79 m/s, ° | - | - |
| 1787979941 | 17.22° C | 97% | 1012.6 hPa | 69.85 mm | 0.45 m/s, ° | - | - |
| 1787979881 | 17.22° C | 97% | 1012.6 hPa | 69.85 mm | 1.34 m/s, ° | - | - |
| 1787979821 | 17.78° C | 97% | 1012.5 hPa | 69.85 mm | 0.89 m/s, ° | - | - |
| 1787979761 | 17.22° C | 97% | 1014.4 hPa | 52.83 mm | 1.79 m/s, ° | - | - |
| 1787979701 | 17.78° C | 97% | 1012.6 hPa | 52.83 mm | 2.68 m/s, ° | - | - |
| 1787979641 | 17.22° C | 97% | 1012.5 hPa | 52.83 mm | 2.24 m/s, ° | - | - |
| 1787979581 | 17.22° C | 97% | 1012.5 hPa | 52.83 mm | 2.68 m/s, ° | - | - |
* Rain latest hour (hover to see other rain measurements)
** Current wind speed in m/s (hover to see current wind gust speed)